Location: C�mpuri de-Sus
(45.9500°N, 22.5500°E)
Time: 05:46:26
(UTC+00:00)

CZ-4 R/B - Pass Details

Date: 24 October 2021
Orbit: 531 x 595 km, 97.8° (Epoch: 04 December)

Event Time Altitude Azimuth Distance (km) Brightness Sun altitude
Exits shadow 16:25:08 - 138° (SE) 2,733 4.5 -10.5°
Reaches altitude 10° 16:27:25 10° 126° (SE) 1,864 3.6 -10.9°
Maximum altitude 16:30:53 28° 67° (ENE) 1,091 2.3 -11.5°
Drops below altitude 10° 16:34:26 10° 8° (N) 1,909 3.9 -12.1°
Sets 16:36:49 0° 357° (N) 2,824 4.9 -12.5°
